星链-34689 (STARLINK-34689)

导读

STARLINK-34689是美国SpaceX公司星链(Starlink)互联网星座的一颗卫星,于2025年7月26日发射入轨,部署在低地球轨道。星链星座旨在为全球提供高速低时延宽带互联网服务,尤其填补偏远地区网络覆盖盲区。该卫星继承星链技术特点,配备霍尔推进器与自主避撞系统,服役末期将主动离轨,再入大气层烧毁,是星链大规模组网持续扩容的组成部分,助力全球太空互联网基础设施建设。

基本信息
目录编号:
64949
目录名称:
STARLINK-34689
国际标识:
2025-158T
轨道中心:
EARTH
卫星名称:
星链-34689
卫星全名:
星链-34689 (STARLINK-34689)
卫星状态:
在轨 (已飞行322 天)
发射日期:
2025-07-26 UTC
国别 :
美国 (US)
星等 :
--
轨道信息
数据来源 国际轨道数据 AOE轨道数据
星历时间 2026-06-13T12:47:06+0800
13小时前
查看轨道信息
2026-06-13T01:00:00+0800
1天前
查看轨道信息
半长轴 6927.61km 6927.662km
偏心率 0.0002786 0.0002574
轨道倾角 97.367° 97.372°
近地点辐角 84.552° 89.991°
升交点赤经 27.306° 26.835°
平近点角 275.602° 130.215°
近地点 547.542km 547.741km
远地点 551.404km 551.309km
周期 95.639分钟 95.640分钟
每日圈数 15.056625 15.056458
详细信息
固有亮度:
5
最大亮度:
2.5
卫星平台:
Starlink V1.0
覆盖范围:
全球
运营商:
太空探索技术公司
运营商所在国:
美国
制造商(研发单位):
太空探索技术公司
制造商所在国:
美国
使用方式:
暂无
卫星简介
Starlink 计划是 SpaceX 推出的全球卫星互联网项目,通过发射低轨道卫星,为全球尤其是偏远地区提供高速、低延迟的互联网服务。自 2019 年起,Starlink 已部署数千颗卫星,旨在缩小全球数字鸿沟,推动互联网普及。该项目还为军事、航空等行业提供通信支持,带来广泛经济效益。
2D轨道图
3D轨道图
轨道高度分析图
轨道倾角分析图
轨道综合分析图
查看轨道综合分析图